Volver al catálogo

SL-16 DEB

ActivoLEO
NORAD 22619·DEBRIS·🇷🇺 Russia

Lanzado Mar 26, 1993 desde Baikonur Cosmodrome

Loading…

Próximos Pases (próximas 24 horas)

TLE

ActualizadoSource: Space-Track

Época: Sep 14, 2026, 11:15 UTC

1 22619U 93016AD  26257.46909315 -.00000026  00000-0  15343-4 0  9997
2 22619  70.9992  65.8882 0185621  16.7470  13.5177 13.73896122677368

Sigue SL-16 DEB en tiempo real con AllMySat

Download on the App Store